TRANSPORTER-15 P (66679 NORAD) Tracking and Keplerian Element Data

This shows tracking and keplerian element data for the satellite.

Feedback or suggestion? Click here.




ElementValue
Catalog66679
NameTRANSPORTER-15 P
Epoch Orbit324
Epoch Day354.13384574
Epoch Year2025
RAAN65.7374
Inclination97.4373
Eccentricity0.0004545
Argument of Perigee269.6392
Mean Anonmoly90.4321
Mean Motion15.16669793
Decay Rate5.84E-05
L11 66679U 25276P 25354.13384574 .00005840 00000+0 30165-3 0 9994
L22 66679 97.4373 65.7374 0004545 269.6392 90.4321 15.16669793 3247



Live tracking and technical data element details for TRANSPORTER-15 P (NORAD 66679). TRANSPORTER-15 P can be tracked NOW for your location showing map with azimuth and elevation plus other details from your city location.







IsCatalogInMostPopularTable: catalog: 66679, numindb: 13
Update: records affected: 1



GetName: 66679 TRANSPORTER-15 P

Hit Count: updated at: Tue, 21 Apr 2026 20:21:30 GMT